Flag for USA

Past Weather in 47°15'06"N, 122°25'22"W, USA — Yesterday and Last 2 Weeks

Now
61 °F

Mostly cloudy.


Feels Like: 61 °F
Forecast: 75 / 60 °F
Wind: 6 mph from Southwest

Location: Tacoma Narrows Airport

Current Time: Aug 3, 2020 at 8:49:23 am

Latest Report: Aug 3, 2020 at 7:53 am


Visibility: 10 mi

Pressure: 30.16 "Hg

Humidity: 87%

Dew Point: 57 °F

Location of 47°15'06"N, 122°25'22"WLocation

Past Weather in 47°15'06"N, 122°25'22"W — Graph

°F

47°15'06"N, 122°25'22"W Temperature Yesterday

Maximum temperature yesterday: 78 °F (at 4:35 pm)
Minimum temperature yesterday: 54 °F (at 5:53 am)
Average temperature yesterday: 66 °F

High & Low Weather Summary for the Past Weeks

 TemperatureHumidityPressure
High89 °F (Jul 27, 2:53 pm)100% (Jul 22, 4:53 am)30.18 "Hg (Jul 22, 4:53 am)
Low51 °F (Jul 25, 4:53 am)32% (Jul 27, 2:53 pm)29.80 "Hg (Jul 27, 6:53 pm)
Average65 °F68%29.99 "Hg
* Reported Jul 19 7:53 am — Aug 3 7:09 am, 47°15'06"N, 122°25'22"W. Weather by CustomWeather, © 2020

Note: Actual official high and low records may vary slightly from our data, if they occured in-between our weather recording intervals... More about our weather records

47°15'06"N, 122°25'22"W Weather History for the Previous 24 Hours

Scroll right to see more
 ConditionsComfort  
Time TempWeatherWind HumidityBarometerVisibility
7:09 am
Mon, Aug 3
60 °FOvercast.6 mph86%30.17 "Hg10 mi
5:53 am59 °FLow clouds.5 mph90%30.15 "Hg10 mi
4:53 am59 °FLow clouds.6 mph90%30.14 "Hg10 mi
4:16 am59 °FLow clouds.5 mph90%30.14 "Hg10 mi
3:53 am57 °FPassing clouds.3 mph93%30.13 "Hg10 mi
2:53 am59 °FPassing clouds.3 mph87%30.12 "Hg10 mi
1:53 am59 °FClear.6 mph87%30.11 "Hg10 mi
12:53 am61 °FClear.5 mph81%30.10 "Hg10 mi
11:53 pm
Sun, Aug 2
62 °FClear.6 mph75%30.09 "Hg10 mi
10:53 pm63 °FPassing clouds.7 mph70%30.09 "Hg10 mi
9:53 pm66 °FOvercast.No wind61%30.09 "Hg10 mi
8:53 pm68 °FPassing clouds.3 mph53%30.07 "Hg10 mi
7:53 pm71 °FScattered clouds.8 mph49%30.06 "Hg10 mi
6:53 pm75 °FScattered clouds.7 mph45%30.06 "Hg10 mi
5:53 pm77 °FScattered clouds.5 mph42%30.05 "Hg10 mi
4:53 pm77 °FScattered clouds.8 mph40%30.05 "Hg10 mi
4:35 pm78 °FScattered clouds.8 mph40%30.06 "Hg10 mi
3:53 pm76 °FScattered clouds.7 mph45%30.05 "Hg10 mi
2:53 pm75 °FScattered clouds.7 mph50%30.06 "Hg10 mi
1:53 pm75 °FScattered clouds.7 mph50%30.06 "Hg10 mi
12:53 pm71 °FScattered clouds.7 mph57%30.07 "Hg10 mi
11:53 am69 °FScattered clouds.7 mph61%30.08 "Hg10 mi
10:53 am66 °FScattered clouds.6 mph68%30.08 "Hg10 mi
9:53 am63 °FScattered clouds.7 mph75%30.08 "Hg10 mi
8:53 am61 °FScattered clouds.5 mph81%30.08 "Hg10 mi
8:09 am58 °FScattered clouds.5 mph90%30.10 "Hg10 mi
Weather by CustomWeather, © 2020

See weather overview